M I D A S
Marine Information and Data Acquisition System
Tripno 1493 of the Zeeleeuw from 2008-05-27 06:58:41 to 2008-05-27 12:51:19
Back to CruiseResearch ActivitiesStationsMapUnderway DataData graphs

EquipmentUnitsComments
TimeDGPSUTC
LatitudeDGPSDM.mWGS84
LongitudeDGPSDM.mWGS84
SpeedMeteo Stationm/sRelative wind speed
DirectionMeteo StationdegRelative wind direction
TemperatureMeteo Stationdeg CelciusAir temperature
PressureMeteo StationPaAtmospheric pressure
HumidityMeteo Station%Relative humidity
Missing or incorrect values are displayed as -999
Metereological data collected by the RV Zeeleeuw from 2008-05-27 06:55:51 to 2008-05-27 12:55:50
Time Latitude Longitude Speed Direction Temperature Pressure Humidity
2008-05-27 06:56 51°13.622 2°56.049 2.2 348 15.8 101020 96
2008-05-27 06:57 51°13.622 2°56.049 1.8 352 15.8 101010 96
2008-05-27 06:58 51°13.624 2°56.034 1.8 355 15.8 101010 96
2008-05-27 06:59 51°13.651 2°55.942 1 35 15.7 101010 96
2008-05-27 07:00 51°13.68 2°55.839 0.8 27 15.8 101010 96
2008-05-27 07:01 51°13.694 2°55.78 1.2 12 15.8 101010 96
2008-05-27 07:02 51°13.7 2°55.769 2.3 15 15.9 101020 96
2008-05-27 07:03 51°13.706 2°55.767 1.7 23 15.9 101020 96
2008-05-27 07:04 51°13.701 2°55.749 3.1 21 15.9 101020 96
2008-05-27 07:05 51°13.694 2°55.739 2.8 17 16 101020 96
2008-05-27 07:06 51°13.692 2°55.734 2.4 24 16 101030 95
2008-05-27 07:07 51°13.692 2°55.728 2.9 32 16 101020 95
2008-05-27 07:08 51°13.693 2°55.721 2 20 15.9 101020 95
2008-05-27 07:09 51°13.747 2°55.695 2.2 16 15.9 101030 95
2008-05-27 07:10 51°13.836 2°55.628 0.9 2 15.9 101030 95
2008-05-27 07:11 51°13.928 2°55.56 0.9 3 16 101030 95
2008-05-27 07:12 51°14.017 2°55.497 0.7 13 15.9 101030 95
2008-05-27 07:13 51°14.112 2°55.428 0.8 19 16 101020 95
2008-05-27 07:14 51°14.211 2°55.339 0.1 20 16 101020 95
2008-05-27 07:15 51°14.296 2°55.198 1.6 25 16.2 101020 95
2008-05-27 07:16 51°14.414 2°54.995 1.8 334 16.2 101010 95
2008-05-27 07:17 51°14.575 2°54.816 2.6 341 16.1 101020 94
2008-05-27 07:18 51°14.742 2°54.649 2.5 339 16.1 101010 94
2008-05-27 07:19 51°14.91 2°54.481 3.5 341 16 101030 94
2008-05-27 07:20 51°15.081 2°54.319 3.4 341 16 101020 94
2008-05-27 07:21 51°15.255 2°54.159 3.8 340 15.9 101030 94
2008-05-27 07:22 51°15.432 2°54.003 3.6 344 15.9 101030 95
2008-05-27 07:23 51°15.613 2°53.855 3.7 343 15.8 101030 95
2008-05-27 07:24 51°15.794 2°53.701 4.1 342 15.8 101030 95
2008-05-27 07:25 51°15.973 2°53.554 3.3 343 15.8 101030 95
2008-05-27 07:26 51°16.155 2°53.401 4 342 15.8 101020 95
2008-05-27 07:27 51°16.331 2°53.25 3.4 341 15.7 101010 95
2008-05-27 07:28 51°16.51 2°53.099 2.9 341 15.7 101020 96
2008-05-27 07:29 51°16.691 2°52.948 3.1 341 15.7 101040 96
2008-05-27 07:30 51°16.867 2°52.799 3.4 344 15.7 101030 96
2008-05-27 07:31 51°17.05 2°52.648 2.9 349 15.7 101050 96
2008-05-27 07:32 51°17.234 2°52.525 4 352 15.7 101020 96
2008-05-27 07:33 51°17.437 2°52.481 4.5 346 15.7 101030 96
2008-05-27 07:34 51°17.645 2°52.462 4.1 346 15.7 101030 96
2008-05-27 07:35 51°17.852 2°52.443 5.3 345 15.6 101040 96
2008-05-27 07:36 51°18.056 2°52.468 5.7 348 15.6 101040 96
2008-05-27 07:37 51°18.249 2°52.563 6.1 346 15.6 101030 96
2008-05-27 07:38 51°18.441 2°52.666 6.4 347 15.6 101050 97
2008-05-27 07:39 51°18.637 2°52.77 6.7 345 15.7 101030 97
2008-05-27 07:40 51°18.829 2°52.9 6.3 348 15.7 101030 97
2008-05-27 07:41 51°19.021 2°53.024 6.8 347 15.7 101050 97
2008-05-27 07:42 51°19.209 2°53.143 6.1 348 15.6 101030 97
2008-05-27 07:43 51°19.393 2°53.275 6 352 15.6 101050 98
2008-05-27 07:44 51°19.577 2°53.41 5.8 348 15.6 101030 98
2008-05-27 07:45 51°19.764 2°53.54 5.1 349 15.6 101020 98
2008-05-27 07:46 51°19.957 2°53.668 6.4 345 15.5 101040 98
2008-05-27 07:47 51°20.15 2°53.797 5.5 346 15.5 101030 98
2008-05-27 07:48 51°20.332 2°53.929 6 347 15.5 101040 98
2008-05-27 07:49 51°20.52 2°54.064 6.4 348 15.5 101040 98
2008-05-27 07:50 51°20.713 2°54.193 6.4 348 15.5 101050 98
2008-05-27 07:51 51°20.904 2°54.331 7 345 15.5 101040 98
2008-05-27 07:52 51°21.095 2°54.465 5.2 344 15.5 101030 98
2008-05-27 07:53 51°21.289 2°54.6 6.5 281 15.6 101030 98
2008-05-27 07:54 51°21.48 2°54.735 5.7 281 15.5 101050 98
2008-05-27 07:55 51°21.676 2°54.872 6.7 283 15.6 101030 99
2008-05-27 07:56 51°21.873 2°55.008 5.6 277 15.5 101040 99
2008-05-27 07:57 51°22.065 2°55.146 6.8 279 15.5 101050 99
2008-05-27 07:58 51°22.258 2°55.286 5.9 279 15.5 101050 99
2008-05-27 07:59 51°22.448 2°55.419 6 279 15.5 101050 99
2008-05-27 08:00 51°22.641 2°55.554 6.5 278 15.5 101050 99
2008-05-27 08:01 51°22.835 2°55.685 6.4 282 15.5 101040 99
2008-05-27 08:02 51°23.025 2°55.821 5.4 344 15.5 101050 99
2008-05-27 08:03 51°23.22 2°55.96 5.8 279 15.5 101040 99
2008-05-27 08:04 51°23.411 2°56.097 5.7 282 15.5 101050 99
2008-05-27 08:05 51°23.604 2°56.225 5.7 280 15.5 101070 99
2008-05-27 08:06 51°23.794 2°56.357 6.2 279 15.5 101060 99
2008-05-27 08:07 51°23.987 2°56.49 4.9 277 15.5 101050 99
2008-05-27 08:08 51°24.182 2°56.621 4.8 345 15.4 101080 99
2008-05-27 08:09 51°24.379 2°56.752 5.5 345 15.4 101070 99
2008-05-27 08:10 51°24.573 2°56.891 5.5 345 15.4 101080 99
2008-05-27 08:11 51°24.769 2°57.032 4.5 278 15.4 101060 99
2008-05-27 08:12 51°24.964 2°57.175 5.1 281 15.4 101090 99
2008-05-27 08:13 51°25.153 2°57.315 5 346 15.4 101080 99
2008-05-27 08:14 51°25.345 2°57.46 5.4 282 15.4 101070 99
2008-05-27 08:15 51°25.54 2°57.603 5.7 342 15.4 101080 99
2008-05-27 08:16 51°25.736 2°57.741 4.1 284 15.4 101080 99
2008-05-27 08:17 51°25.931 2°57.877 6.1 342 15.4 101080 99
2008-05-27 08:18 51°26.127 2°58.015 4.6 278 15.4 101080 100
2008-05-27 08:19 51°26.318 2°58.151 5 279 15.4 101070 100
2008-05-27 08:20 51°26.513 2°58.285 4.6 284 15.4 101080 100
2008-05-27 08:21 51°26.707 2°58.417 5.6 279 15.4 101080 100
2008-05-27 08:22 51°26.904 2°58.552 5.1 280 15.4 101090 100
2008-05-27 08:23 51°27.104 2°58.685 5.6 278 15.4 101080 100
2008-05-27 08:24 51°27.301 2°58.81 5.7 343 15.3 101100 100
2008-05-27 08:25 51°27.501 2°58.939 4.9 280 15.4 101080 100
2008-05-27 08:26 51°27.699 2°59.063 4.6 344 15.3 101080 100
2008-05-27 08:27 51°27.896 2°59.205 5.6 283 15.3 101080 100
2008-05-27 08:28 51°28.095 2°59.353 6.5 281 15.3 101080 100
2008-05-27 08:29 51°28.288 2°59.494 4.6 279 15.2 101080 100
2008-05-27 08:30 51°28.48 2°59.634 4 279 15.3 101090 100
2008-05-27 08:31 51°28.669 2°59.775 4.1 279 15.3 101080 100
2008-05-27 08:32 51°28.852 2°59.932 5.2 284 15.2 101110 100
2008-05-27 08:33 51°29.035 3°0.093 5.1 337 15.3 101080 100
2008-05-27 08:34 51°29.217 3°0.25 4.3 285 15.3 101090 100
2008-05-27 08:35 51°29.403 3°0.401 5.9 283 15.3 101100 100
2008-05-27 08:36 51°29.591 3°0.537 6 284 15.3 101090 100
2008-05-27 08:37 51°29.786 3°0.669 5.4 286 15.2 101090 100
2008-05-27 08:38 51°29.975 3°0.798 6.2 283 15.3 101080 100
2008-05-27 08:39 51°30.171 3°0.929 8 281 15.3 101080 100
2008-05-27 08:40 51°30.366 3°1.063 7.8 331 15.3 101090 100
2008-05-27 08:41 51°30.477 3°1.16 3.1 282 15.3 101080 100
2008-05-27 08:42 51°30.515 3°1.233 1.9 280 15.3 101090 100
2008-05-27 08:43 51°30.535 3°1.278 0.8 286 15.3 101090 100
2008-05-27 08:44 51°30.538 3°1.275 0.4 276 15.5 101090 100
2008-05-27 08:45 51°30.54 3°1.248 0.7 283 15.6 101090 100
2008-05-27 08:46 51°30.545 3°1.239 0.4 79 15.8 101100 100
2008-05-27 08:47 51°30.549 3°1.252 0.2 286 15.9 101100 100
2008-05-27 08:48 51°30.552 3°1.267 0.4 84 16.1 101100 100
2008-05-27 08:49 51°30.553 3°1.281 0.8 30 16.2 101110 100
2008-05-27 08:50 51°30.554 3°1.292 0.2 74 16.3 101110 100
2008-05-27 08:51 51°30.554 3°1.299 0.9 18 16.4 101100 100
2008-05-27 08:52 51°30.553 3°1.304 0.4 35 16.4 101130 100
2008-05-27 08:53 51°30.552 3°1.307 0.5 42 16.4 101110 99
2008-05-27 08:54 51°30.551 3°1.31 0.7 43 16.4 101110 99
2008-05-27 08:55 51°30.549 3°1.313 0.5 32 16.4 101120 98
2008-05-27 08:56 51°30.547 3°1.313 0.5 31 16.4 101120 98
2008-05-27 08:57 51°30.546 3°1.313 0.6 31 16.3 101130 98
2008-05-27 08:58 51°30.544 3°1.313 0.5 32 16.3 101140 98
2008-05-27 08:59 51°30.542 3°1.312 0.5 27 16.3 101140 98
2008-05-27 09:00 51°30.539 3°1.309 0.5 27 16.3 101140 98
2008-05-27 09:01 51°30.538 3°1.306 0.8 30 16.3 101140 97
2008-05-27 09:02 51°30.538 3°1.304 0.7 29 16.3 101150 97
2008-05-27 09:03 51°30.538 3°1.3 0.9 29 16.3 101150 97
2008-05-27 09:04 51°30.537 3°1.298 0.8 16 16.3 101140 97
2008-05-27 09:05 51°30.538 3°1.296 1.5 12 16.3 101150 97
2008-05-27 09:06 51°30.538 3°1.295 1.9 3 16.3 101140 96
2008-05-27 09:07 51°30.537 3°1.293 1.9 353 16.2 101150 96
2008-05-27 09:08 51°30.539 3°1.291 1.8 347 16.1 101150 96
2008-05-27 09:09 51°30.54 3°1.293 1.1 343 16 101140 96
2008-05-27 09:10 51°30.54 3°1.294 0.9 351 15.9 101140 96
2008-05-27 09:11 51°30.54 3°1.297 1 353 15.9 101140 97
2008-05-27 09:12 51°30.54 3°1.298 0.9 334 15.9 101150 97
2008-05-27 09:13 51°30.54 3°1.299 1.2 316 16 101150 97
2008-05-27 09:14 51°30.54 3°1.298 1.7 354 16 101150 97
2008-05-27 09:15 51°30.54 3°1.297 1.3 331 16 101150 97
2008-05-27 09:16 51°30.542 3°1.297 1.9 354 16 101140 97
2008-05-27 09:17 51°30.541 3°1.297 1.7 324 15.9 101150 97
2008-05-27 09:18 51°30.541 3°1.297 1.5 279 15.9 101130 97
2008-05-27 09:19 51°30.539 3°1.299 1.7 352 15.8 101150 97
2008-05-27 09:20 51°30.536 3°1.3 2.2 278 15.7 101130 97
2008-05-27 09:21 51°30.534 3°1.3 2.2 347 15.7 101130 97
2008-05-27 09:22 51°30.531 3°1.301 1.7 337 15.6 101130 97
2008-05-27 09:23 51°30.53 3°1.302 2.1 352 15.6 101140 97
2008-05-27 09:24 51°30.527 3°1.301 1.7 357 15.5 101130 97
2008-05-27 09:25 51°30.525 3°1.301 2.2 352 15.5 101130 98
2008-05-27 09:26 51°30.524 3°1.3 1.7 342 15.4 101130 98
2008-05-27 09:27 51°30.522 3°1.299 2.1 345 15.4 101120 98
2008-05-27 09:28 51°30.522 3°1.298 2 338 15.4 101130 98
2008-05-27 09:29 51°30.522 3°1.295 1.9 328 15.4 101120 98
2008-05-27 09:30 51°30.521 3°1.293 1.8 333 15.4 101130 99
2008-05-27 09:31 51°30.521 3°1.291 1.9 328 15.5 101120 99
2008-05-27 09:32 51°30.519 3°1.289 1.9 276 15.6 101130 99
2008-05-27 09:33 51°30.518 3°1.287 1.5 28 15.6 101120 99
2008-05-27 09:34 51°30.517 3°1.286 1.8 287 15.7 101120 99
2008-05-27 09:35 51°30.516 3°1.284 2.2 321 15.7 101130 99
2008-05-27 09:36 51°30.515 3°1.282 2 281 15.7 101120 99
2008-05-27 09:37 51°30.513 3°1.281 1.7 26 15.7 101110 99
2008-05-27 09:38 51°30.514 3°1.281 2.7 282 15.7 101110 98
2008-05-27 09:39 51°30.527 3°1.28 2.5 316 15.8 101110 98
2008-05-27 09:40 51°30.538 3°1.284 2.8 26 15.7 101100 98
2008-05-27 09:41 51°30.544 3°1.286 2.5 22 15.7 101110 98
2008-05-27 09:42 51°30.552 3°1.289 2.7 282 15.8 101100 98
2008-05-27 09:43 51°30.582 3°1.263 4 339 15.7 101100 98
2008-05-27 09:44 51°30.662 3°1.125 6.4 278 15.6 101090 98
2008-05-27 09:45 51°30.79 3°0.91 7.3 331 15.6 101080 98
2008-05-27 09:46 51°30.918 3°0.676 8.5 332 15.5 101100 98
2008-05-27 09:47 51°31.029 3°0.413 7.4 278 15.4 101080 98
2008-05-27 09:48 51°31.155 3°0.155 8.6 332 15.4 101080 98
2008-05-27 09:49 51°31.293 2°59.917 8.3 333 15.4 101080 99
2008-05-27 09:50 51°31.431 2°59.68 8.2 333 15.4 101090 99
2008-05-27 09:51 51°31.566 2°59.443 8.5 285 15.4 101090 99
2008-05-27 09:52 51°31.702 2°59.207 8.8 280 15.3 101090 99
2008-05-27 09:53 51°31.782 2°59.106 4.6 320 15.3 101100 99
2008-05-27 09:54 51°31.85 2°59.104 4.6 320 15.2 101110 99
2008-05-27 09:55 51°31.925 2°59.14 5.7 27 15.2 101110 99
2008-05-27 09:56 51°31.98 2°59.165 3.2 26 15.1 101100 99
2008-05-27 09:57 51°31.968 2°59.159 3.4 26 15.1 101100 99
2008-05-27 09:58 51°31.956 2°59.151 4 29 15.1 101100 99
2008-05-27 09:59 51°31.946 2°59.144 2.9 27 15.2 101100 99
2008-05-27 10:00 51°31.95 2°59.145 3.8 27 15.2 101110 99
2008-05-27 10:01 51°31.955 2°59.147 3.7 21 15.2 101110 99
2008-05-27 10:02 51°31.956 2°59.147 3.2 21 15.2 101110 99
2008-05-27 10:03 51°31.953 2°59.144 3.2 24 15.2 101110 99
2008-05-27 10:04 51°31.949 2°59.142 2.8 26 15.2 101130 99
2008-05-27 10:05 51°31.95 2°59.143 3.7 23 15.2 101120 99
2008-05-27 10:06 51°31.953 2°59.145 3.6 27 15.2 101120 99
2008-05-27 10:07 51°31.954 2°59.146 3.7 21 15.2 101120 99
2008-05-27 10:08 51°31.953 2°59.147 3.1 24 15.2 101120 99
2008-05-27 10:09 51°31.95 2°59.146 3.3 22 15.2 101120 99
2008-05-27 10:10 51°31.948 2°59.145 3.9 28 15.2 101120 99
2008-05-27 10:11 51°31.951 2°59.146 3.4 26 15.2 101130 99
2008-05-27 10:12 51°31.952 2°59.147 3.7 31 15.2 101130 99
2008-05-27 10:13 51°31.95 2°59.146 3.7 25 15.1 101110 99
2008-05-27 10:14 51°31.949 2°59.144 3 29 15.1 101120 99
2008-05-27 10:15 51°31.949 2°59.145 3.1 26 15.1 101110 99
2008-05-27 10:16 51°31.95 2°59.145 3.7 28 15.1 101120 99
2008-05-27 10:17 51°31.95 2°59.147 3 24 15.1 101130 99
2008-05-27 10:18 51°31.949 2°59.149 3.8 24 15.1 101130 98
2008-05-27 10:19 51°31.949 2°59.15 4 28 15 101130 98
2008-05-27 10:20 51°31.949 2°59.15 3.7 27 15 101120 98
2008-05-27 10:21 51°31.948 2°59.151 3.3 25 15 101120 98
2008-05-27 10:22 51°31.948 2°59.148 3.3 27 15 101120 98
2008-05-27 10:23 51°31.95 2°59.147 4.1 23 15 101120 98
2008-05-27 10:24 51°31.951 2°59.146 3.3 316 15 101130 98
2008-05-27 10:25 51°31.95 2°59.145 3.3 26 14.9 101140 98
2008-05-27 10:26 51°31.95 2°59.145 3 317 14.9 101140 98
2008-05-27 10:27 51°31.949 2°59.142 3.3 28 14.9 101150 98
2008-05-27 10:28 51°31.95 2°59.144 4.1 24 14.9 101150 98
2008-05-27 10:29 51°31.951 2°59.146 3.9 27 14.9 101150 98
2008-05-27 10:30 51°31.951 2°59.147 3.6 22 14.9 101150 98
2008-05-27 10:31 51°31.948 2°59.147 3.5 27 14.8 101140 98
2008-05-27 10:32 51°31.949 2°59.149 3.1 26 14.8 101140 98
2008-05-27 10:33 51°31.951 2°59.15 3 24 14.7 101150 98
2008-05-27 10:34 51°31.952 2°59.148 3.3 316 14.7 101150 99
2008-05-27 10:35 51°31.952 2°59.145 3.4 315 14.7 101150 99
2008-05-27 10:36 51°31.95 2°59.143 2.9 277 14.7 101140 99
2008-05-27 10:37 51°31.949 2°59.142 3.9 320 14.6 101150 99
2008-05-27 10:38 51°31.952 2°59.142 3.2 279 14.6 101140 99
2008-05-27 10:39 51°31.952 2°59.141 4.3 29 14.6 101140 99
2008-05-27 10:40 51°31.95 2°59.142 3.1 20 14.5 101140 99
2008-05-27 10:41 51°31.949 2°59.142 4 25 14.5 101150 99
2008-05-27 10:42 51°31.951 2°59.143 3.5 27 14.5 101140 99
2008-05-27 10:43 51°31.951 2°59.144 4.1 26 14.4 101140 99
2008-05-27 10:44 51°31.95 2°59.143 4.5 20 14.4 101150 99
2008-05-27 10:45 51°31.949 2°59.143 3.9 28 14.4 101140 99
2008-05-27 10:46 51°31.949 2°59.144 4.6 22 14.3 101150 99
2008-05-27 10:47 51°31.953 2°59.147 5 28 14.3 101150 99
2008-05-27 10:48 51°31.963 2°59.151 5.2 21 14.2 101150 99
2008-05-27 10:49 51°31.976 2°59.157 4.5 317 14.2 101150 99
2008-05-27 10:50 51°31.987 2°59.155 4.9 27 14.2 101150 99
2008-05-27 10:51 51°31.998 2°59.159 4.8 317 14.2 101150 99
2008-05-27 10:52 51°32.062 2°59.179 7.2 325 14.2 101150 99
2008-05-27 10:53 51°32.204 2°59.225 10.5 327 14.1 101160 100
2008-05-27 10:54 51°32.384 2°59.282 10.3 329 14.1 101140 100
2008-05-27 10:55 51°32.568 2°59.265 10.5 333 14.1 101150 100
2008-05-27 10:56 51°32.736 2°59.1 10.5 336 14 101140 100
2008-05-27 10:57 51°32.881 2°58.875 9.3 334 13.9 101140 100
2008-05-27 10:58 51°33.017 2°58.643 11.3 339 13.8 101140 100
2008-05-27 10:59 51°33.148 2°58.4 10.3 338 13.7 101130 100
2008-05-27 11:00 51°33.277 2°58.179 8.3 338 13.7 101160 100
2008-05-27 11:01 51°33.339 2°58.136 4.3 320 13.6 101150 100
2008-05-27 11:02 51°33.383 2°58.114 6 339 13.6 101160 100
2008-05-27 11:03 51°33.47 2°57.938 9.9 339 13.5 101160 100
2008-05-27 11:04 51°33.591 2°57.68 10.3 340 13.5 101160 100
2008-05-27 11:05 51°33.713 2°57.416 10.4 338 13.4 101150 100
2008-05-27 11:06 51°33.836 2°57.153 8.9 338 13.4 101170 100
2008-05-27 11:07 51°33.953 2°56.889 10.3 338 13.3 101170 100
2008-05-27 11:08 51°34.076 2°56.626 9.1 339 13.3 101170 100
2008-05-27 11:09 51°34.201 2°56.354 8.9 339 13.2 101160 100
2008-05-27 11:10 51°34.32 2°56.082 8.3 341 13.2 101180 100
2008-05-27 11:11 51°34.368 2°55.754 7.6 339 13.1 101170 100
2008-05-27 11:12 51°34.389 2°55.417 6.9 343 13 101170 100
2008-05-27 11:13 51°34.401 2°55.182 4.8 350 13 101170 100
2008-05-27 11:14 51°34.352 2°55.026 2.1 10 12.9 101180 100
2008-05-27 11:15 51°34.224 2°54.888 3.8 345 12.9 101170 100
2008-05-27 11:16 51°34.059 2°54.703 5.5 346 12.9 101160 100
2008-05-27 11:17 51°33.881 2°54.505 4.3 344 12.9 101160 100
2008-05-27 11:18 51°33.695 2°54.312 4.8 341 12.9 101180 100
2008-05-27 11:19 51°33.504 2°54.141 3.4 344 12.9 101170 100
2008-05-27 11:20 51°33.292 2°54.062 4.1 330 13 101180 100
2008-05-27 11:21 51°33.076 2°54.024 3.3 334 13 101170 100
2008-05-27 11:22 51°32.861 2°53.974 4 332 13 101180 100
2008-05-27 11:23 51°32.64 2°53.925 3.9 337 13 101180 100
2008-05-27 11:24 51°32.424 2°53.864 3.7 341 13 101170 100
2008-05-27 11:25 51°32.199 2°53.806 4.6 336 13 101180 100
2008-05-27 11:26 51°31.983 2°53.756 3.4 336 13 101180 100
2008-05-27 11:27 51°31.763 2°53.724 3.2 332 13 101170 100
2008-05-27 11:28 51°31.542 2°53.691 3 341 13 101160 100
2008-05-27 11:29 51°31.321 2°53.658 3.5 337 13.1 101160 100
2008-05-27 11:30 51°31.101 2°53.632 3.1 337 13.1 101170 100
2008-05-27 11:31 51°30.885 2°53.605 3.2 326 13.2 101160 100
2008-05-27 11:32 51°30.66 2°53.582 3.3 325 13.2 101160 100
2008-05-27 11:33 51°30.439 2°53.554 3 336 13.2 101170 100
2008-05-27 11:34 51°30.22 2°53.535 2.7 336 13.3 101160 100
2008-05-27 11:35 51°30.001 2°53.516 2.9 335 13.3 101150 100
2008-05-27 11:36 51°29.781 2°53.505 2.7 337 13.2 101150 100
2008-05-27 11:37 51°29.561 2°53.493 2.6 340 13.3 101160 100
2008-05-27 11:38 51°29.346 2°53.495 3.4 326 13.3 101150 100
2008-05-27 11:39 51°29.122 2°53.502 2.4 327 13.3 101150 100
2008-05-27 11:40 51°28.899 2°53.507 2.6 325 13.3 101150 100
2008-05-27 11:41 51°28.677 2°53.518 2.7 328 13.4 101150 100
2008-05-27 11:42 51°28.456 2°53.523 3 331 13.4 101150 100
2008-05-27 11:43 51°28.236 2°53.537 2.2 333 13.4 101140 100
2008-05-27 11:44 51°28.017 2°53.54 2.5 323 13.4 101140 100
2008-05-27 11:45 51°27.795 2°53.547 2.3 325 13.4 101140 100
2008-05-27 11:46 51°27.572 2°53.552 2 345 13.4 101140 100
2008-05-27 11:47 51°27.355 2°53.557 2.2 329 13.4 101140 100
2008-05-27 11:48 51°27.128 2°53.55 2.6 339 13.5 101130 100
2008-05-27 11:49 51°26.904 2°53.543 1.9 332 13.5 101130 100
2008-05-27 11:50 51°26.681 2°53.538 2.5 315 13.5 101130 100
2008-05-27 11:51 51°26.459 2°53.529 2 321 13.5 101130 100
2008-05-27 11:52 51°26.236 2°53.515 2.8 330 13.5 101130 100
2008-05-27 11:53 51°26.013 2°53.503 2.5 280 13.6 101120 100
2008-05-27 11:54 51°25.789 2°53.493 2 282 13.5 101130 100
2008-05-27 11:55 51°25.569 2°53.484 2.1 280 13.5 101120 100
2008-05-27 11:56 51°25.347 2°53.475 1.9 286 13.5 101120 100
2008-05-27 11:57 51°25.126 2°53.464 2.3 284 13.5 101130 100
2008-05-27 11:58 51°24.903 2°53.449 1.6 283 13.5 101130 100
2008-05-27 11:59 51°24.679 2°53.417 1.9 276 13.5 101120 100
2008-05-27 12:00 51°24.455 2°53.376 1.7 280 13.5 101130 100
2008-05-27 12:01 51°24.236 2°53.323 2.1 283 13.6 101120 100
2008-05-27 12:02 51°24.008 2°53.273 2.1 284 13.6 101130 100
2008-05-27 12:03 51°23.784 2°53.219 1.7 279 13.5 101120 100
2008-05-27 12:04 51°23.559 2°53.172 2.5 279 13.5 101120 100
2008-05-27 12:05 51°23.332 2°53.112 1.8 283 13.6 101120 100
2008-05-27 12:06 51°23.107 2°53.058 2 284 13.5 101120 100
2008-05-27 12:07 51°22.884 2°53.009 1.8 347 13.6 101120 100
2008-05-27 12:08 51°22.664 2°52.96 2 284 13.6 101110 100
2008-05-27 12:09 51°22.443 2°52.9 1.1 277 13.7 101100 100
2008-05-27 12:10 51°22.227 2°52.829 1.5 277 13.6 101110 100
2008-05-27 12:11 51°22.004 2°52.77 1.7 281 13.6 101110 100
2008-05-27 12:12 51°21.783 2°52.71 1.5 351 13.7 101110 100
2008-05-27 12:13 51°21.563 2°52.65 2 279 13.7 101110 100
2008-05-27 12:14 51°21.343 2°52.591 1.3 281 13.7 101110 100
2008-05-27 12:15 51°21.123 2°52.55 1.5 286 13.7 101100 100
2008-05-27 12:16 51°20.901 2°52.527 0.7 280 13.8 101110 100
2008-05-27 12:17 51°20.681 2°52.504 1.1 277 13.8 101110 100
2008-05-27 12:18 51°20.459 2°52.481 0.8 277 13.8 101110 100
2008-05-27 12:19 51°20.236 2°52.457 1.5 277 13.8 101110 100
2008-05-27 12:20 51°20.012 2°52.425 1.3 281 13.8 101100 100
2008-05-27 12:21 51°19.787 2°52.397 1.6 285 13.9 101100 100
2008-05-27 12:22 51°19.562 2°52.366 1.2 279 13.9 101110 100
2008-05-27 12:23 51°19.337 2°52.333 1.3 281 13.9 101110 100
2008-05-27 12:24 51°19.114 2°52.314 1.2 283 13.9 101110 100
2008-05-27 12:25 51°18.892 2°52.294 1 280 14 101110 100
2008-05-27 12:26 51°18.67 2°52.265 1.1 279 14 101100 100
2008-05-27 12:27 51°18.447 2°52.261 1.2 282 14 101110 100
2008-05-27 12:28 51°18.225 2°52.245 1.1 284 14.1 101100 100
2008-05-27 12:29 51°18.003 2°52.23 1.4 280 14.1 101100 100
2008-05-27 12:30 51°17.78 2°52.223 1.1 278 14.2 101110 100
2008-05-27 12:31 51°17.557 2°52.212 0.7 285 14.2 101100 100
2008-05-27 12:32 51°17.335 2°52.206 0.8 280 14.2 101100 100
2008-05-27 12:33 51°17.113 2°52.187 1.2 280 14.3 101100 100
2008-05-27 12:34 51°16.892 2°52.181 2.4 279 14.3 101100 100
2008-05-27 12:35 51°16.697 2°52.306 4.3 284 14.3 101100 100
2008-05-27 12:36 51°16.515 2°52.478 4.1 278 14.3 101100 100
2008-05-27 12:37 51°16.332 2°52.638 4.1 286 14.3 101100 100
2008-05-27 12:38 51°16.148 2°52.8 4.5 283 14.4 101090 100
2008-05-27 12:39 51°15.963 2°52.954 4.1 279 14.4 101100 100
2008-05-27 12:40 51°15.778 2°53.104 4.3 280 14.4 101090 100
2008-05-27 12:41 51°15.599 2°53.27 4.4 280 14.4 101090 100
2008-05-27 12:42 51°15.424 2°53.441 5.9 283 14.5 101090 100
2008-05-27 12:43 51°15.247 2°53.61 5.8 284 14.5 101090 100
2008-05-27 12:44 51°15.069 2°53.779 5 283 14.5 101090 100
2008-05-27 12:45 51°14.925 2°53.996 6.8 277 14.6 101090 100
2008-05-27 12:46 51°14.805 2°54.212 5.9 280 14.5 101080 100
2008-05-27 12:47 51°14.691 2°54.417 5.3 280 14.6 101090 100
2008-05-27 12:48 51°14.579 2°54.624 6.6 279 14.6 101080 100
2008-05-27 12:49 51°14.469 2°54.836 6.6 283 14.6 101080 100
2008-05-27 12:50 51°14.37 2°55.061 7.7 284 14.7 101080 100
2008-05-27 12:51 51°14.28 2°55.258 6.8 281 14.8 101090 100
2008-05-27 12:52 51°14.209 2°55.372 5.1 282 14.9 101100 100
2008-05-27 12:53 51°14.126 2°55.446 3.2 284 14.9 101110 100
2008-05-27 12:54 51°14.034 2°55.504 2.2 285 15 101100 100